Weather History for Paganella, Italy

Change the Weather History Date:

Monday, November 28, 2011

  Actual Average Record
Temperature  
Mean Temperature 38 °F -  
Max Temperature 43 °F 30 °F 44 °F (2006)
Min Temperature 33 °F 21 °F 14 °F (2005)
Degree Days  
Heating Degree Days 27    
Moisture  
Dew Point 19 °F    
Average Humidity 42    
Maximum Humidity 60    
Minimum Humidity 16    
Precipitation  
Precipitation 0.00 in 0.04 in - ()
Sea Level Pressure  
Sea Level Pressure 30.27 in    
Wind  
Wind Speed 9 mph ()    
Max Wind Speed 18 mph    
Max Gust Speed -    
Averages and records for this station are not official NWS values.
T = Trace of Precipitation, MM = Missing Value Source: Averaged Metar Reports

Daily Weather History Graph

Daily Weather History Graph

Search for Another Location

Airport:

Trip Planner

Search our weather history database for the weather conditions in past years. The results will help you decide how hot, cold, wet, or windy it might be!

Date:

Astronomy

Nov. 28, 2011 Rise Set
Actual Time 7:33 AM CET 4:33 PM CET
Civil Twilight 6:59 AM CET 5:07 PM CET
Nautical Twilight 6:22 AM CET 5:44 PM CET
Astronomical Twilight 5:46 AM CET 6:20 PM CET
Moon 10:30 AM CET (11/28) 8:03 PM CET (11/28)
Length of Visible Light 10h 07m
Length of Day
9h 00m
Waxing Crescent, 13% of the Moon is Illuminated
Nov 28
Waxing Crescent
Dec 2
First Quarter
Dec 10
Full
Dec 18
Last Quarter
Dec 24
New

Hourly Weather History & Observations

Time (CET) Temp. Windchill Dew Point Humidity Pressure Visibility Wind Dir Wind Speed Gust Speed Precip Events Conditions
12:55 AM 41.0 °F 32.2 °F 10.4 °F 29% 30.27 in - NE 18.4 mph - N/A   Clear
1:00 AM 41 °F - 11 °F 16%  in 28 mi NE 18.4 mph - -  
1:55 AM 41.0 °F 35.2 °F 14.0 °F 33% 30.24 in - NNE 9.2 mph - N/A   Clear
2:55 AM 42.8 °F 38.0 °F 14.0 °F 31% 30.24 in - NE 8.1 mph - N/A   Clear
3:55 AM 42.8 °F 38.0 °F 15.8 °F 34% 30.27 in - North 8.1 mph - N/A   Clear
4:00 AM 43 °F - 16 °F 20%  in 31 mi North 8.1 mph - -  
5:55 AM 42.8 °F 35.8 °F 17.6 °F 36% 30.24 in - NE 13.8 mph - N/A   Clear
6:55 AM 41.0 °F 33.5 °F 19.4 °F 42% 30.24 in - NNE 13.8 mph - N/A   Clear
7:00 AM 41 °F - 20 °F 29%  in 44 mi NNE 13.8 mph - -   Scattered Clouds
7:55 AM 41.0 °F 33.1 °F 19.4 °F 42% 30.27 in - North 15.0 mph - N/A   Clear
8:55 AM 41.0 °F 35.2 °F 21.2 °F 45% 30.27 in - North 9.2 mph - N/A   Clear
9:55 AM 41.0 °F 36.4 °F 23.0 °F 49% 30.30 in - NNE 6.9 mph - N/A   Clear
10:00 AM 41 °F - 23 °F 35%  in 44 mi NNE 6.9 mph - -   Scattered Clouds
10:55 AM 42.8 °F 41.1 °F 23.0 °F 46% 30.30 in - Variable 3.5 mph - N/A   Clear
11:55 AM 42.8 °F 40.1 °F 23.0 °F 46% 30.30 in - South 4.6 mph - N/A   Clear
1:00 PM 42 °F - 21 °F 29%  in 44 mi South 5.8 mph - -   Clear
1:55 PM 41.0 °F 36.4 °F 19.4 °F 42% 30.27 in - South 6.9 mph - N/A   Clear
2:55 PM 41.0 °F - 19.4 °F 42% 30.27 in - SSW 2.3 mph - N/A   Clear
3:55 PM 39.2 °F 35.9 °F 17.6 °F 42% 30.27 in - SSW 4.6 mph - N/A   Clear
4:00 PM 40 °F - 18 °F 28%  in 44 mi SSW 4.6 mph - -   Clear
5:55 PM 35.6 °F 29.2 °F 19.4 °F 52% 30.27 in - South 8.1 mph - N/A   Clear
6:55 PM 33.8 °F 25.8 °F 21.2 °F 60% 30.27 in - South 10.4 mph - N/A   Clear
7:00 PM 34 °F - 21 °F 45%  in 31 mi South 10.4 mph - -   Clear
7:55 PM 35.6 °F 26.6 °F 21.2 °F 56% 30.27 in - SSE 13.8 mph - N/A   Clear
8:55 PM 33.8 °F 29.6 °F 21.2 °F 60% 30.27 in - SSE 4.6 mph - N/A   Clear
9:55 PM 35.6 °F 32.8 °F 21.2 °F 56% 30.27 in - East 3.5 mph - N/A   Clear
10:00 PM 35 °F - 21 °F 43%  in 31 mi East 3.5 mph - -   Clear
10:55 PM 35.6 °F 31.7 °F 21.2 °F 56% 30.27 in - SE 4.6 mph - N/A   Clear
11:55 PM 33.8 °F - 21.2 °F 60% 30.27 in - West 2.3 mph - N/A   Clear